Погода в Росо

Мавритания     16°30′57″N   15°48′05″W
темп.,
°C
ветер,
м/с
пор.,
м/с
влажн.,
%
обл.,
%
осадки,
мм/ч
давл.,
гПа
погр.,
м
2 июля, сб
сб200:00+27зсз6105618 0.0 1012369
03:00+25зсз6106880 0.0 1011394
06:00+24зсз69745 0.0 1011324
09:00+27ссз57520 0.0 1012389
12:00+36с56180 0.0 10121009
15:00+41с5694 0.0 10092223
18:00+35сз892867 0.0 1009627
21:00+29зсз7850100 0.0 1011439
3 июля, вс
вс300:00+28з555497 0.0 1013410
03:00+27з566035 0.0 1011361
06:00+26зсз336569 0.0 1012305
09:00+27зюз336124 0.0 1013303
12:00+34ююз4435100 0.0 1013795
15:00+37зюз3327100 0.0 10101254
18:00+35зсз543753 0.0 1010786
21:00+29з665796 0.0 1012297
4 июля, пн
пн400:00+27з566373 0.0 1013302
03:00+26з6767100 0.0 1011337
06:00+26ююз6870100 0.4 1013480
09:00+28ююз686169 0.1 1014584
12:00+31юз8848100 0.1 1012700
15:00+34зюз543999 0.0 10111174
18:00+33з644463 0.0 10101085
21:00+28зсз776296 0.0 1012422
5 июля, вт
вт500:00+27з566741 0.0 1013320
03:00+26зюз577140 0.0 1012386
06:00+25з57765 0.0 1012344
09:00+28юз56642 0.0 1014468
12:00+34ююз66453 0.0 10141201
15:00+37ююз653715 0.0 10112150
18:00+33зсз87487 0.0 1011793
21:00+29з78650 0.0 1013508
6 июля, ср
ср600:00+27зсз78720 0.0 1014482
03:00+26з68772 0.0 1013422
06:00+25з57801 0.0 1013409
09:00+27зсз55700 0.0 1015566
12:00+33з77460 0.0 1013974
15:00+35з77382 0.0 10121391
18:00+32з88490 0.0 10121000
21:00+27з796766 0.0 1014518